Location: Bijele Vode
(45.2833°N, 16.2000°E)
Time: 13:25:38
(UTC+00:00)

Cosmos 1025 Rocket - Pass Details

Date: 18 September 2020
Orbit: 594 x 617 km, 82.5° (Epoch: 30 October)

Event Time Altitude Azimuth Distance (km) Brightness Sun altitude
Rises 18:46:35 0° 348° (NNW) 2,886 7.0 -19.1°
Reaches altitude 10° 18:48:49 10° 346° (NNW) 1,980 6.1 -19.4°
Maximum altitude 18:53:10 69° 264° (W) 662 3.3 -20.1°
Enters shadow 18:56:10 20° 184° (S) 1,446 4.7 -20.6°
